When you browse on this site, cookies collect data to enhance your experience and personalize the content and advertising you see.
Visit our Privacy Policy to learn more. By continuing to use the site, you agree to this use of cookies and data.
  • In Belgien
  • Länderverzeichnis
  • Für 7 Tage
  • Wassertemperatur
  • Satellitenkarten
  • Wetterkarte
  • Widgets
  • user-avatar
    Anmelden

    Stündliche Wetter Kalgoorlie

    Heute, 22 Februar, Freitag

    Zeit Temperatur Niederschläge Wind Luftdruck Luftfeuchtigkeit
    00:00 +32°C° 0 mm 6 m/S 726 mmHg 18%
    01:00 +30°C° 0 mm 6 m/S 726 mmHg 19%
    02:00 +29°C° 0 mm 5 m/S 726 mmHg 20%
    03:00 +29°C° 0 mm 5 m/S 726 mmHg 22%
    04:00 +28°C° 0 mm 4 m/S 727 mmHg 24%
    05:00 +27°C° 0 mm 4 m/S 727 mmHg 26%
    06:00 +28°C° 0 mm 3 m/S 727 mmHg 25%
    07:00 +29°C° 0 mm 2 m/S 728 mmHg 24%
    08:00 +31°C° 0 mm 2 m/S 728 mmHg 24%
    09:00 +34°C° 0 mm 2 m/S 728 mmHg 20%
    10:00 +36°C° 0 mm 3 m/S 728 mmHg 16%
    11:00 +39°C° 0 mm 3 m/S 728 mmHg 12%
    12:00 +41°C° 0 mm 4 m/S 728 mmHg 11%
    13:00 +42°C° 0 mm 5 m/S 727 mmHg 9%
    14:00 +44°C° 0 mm 6 m/S 727 mmHg 7%
    15:00 +44°C° 0 mm 6 m/S 727 mmHg 7%
    16:00 +44°C° 0 mm 6 m/S 727 mmHg 7%
    17:00 +44°C° 0 mm 6 m/S 726 mmHg 6%
    18:00 +41°C° 0 mm 6 m/S 727 mmHg 7%
    19:00 +40°C° 0 mm 5 m/S 727 mmHg 8%
    20:00 +37°C° 0 mm 4 m/S 727 mmHg 9%
    21:00 +36°C° 0 mm 4 m/S 728 mmHg 11%
    22:00 +35°C° 0 mm 4 m/S 728 mmHg 12%
    23:00 +33°C° 0 mm 4 m/S 728 mmHg 14%

    Morgen, 23 Februar, Samstag

    Zeit Temperatur Niederschläge Wind Luftdruck Luftfeuchtigkeit
    00:00 +32°C° 0 mm 4 m/S 728 mmHg 18%
    01:00 +30°C° 0 mm 4 m/S 728 mmHg 22%
    02:00 +29°C° 0 mm 4 m/S 727 mmHg 25%
    03:00 +28°C° 0 mm 3 m/S 727 mmHg 31%
    04:00 +28°C° 0 mm 3 m/S 727 mmHg 37%
    05:00 +27°C° 0 mm 3 m/S 727 mmHg 42%
    06:00 +28°C° 0 mm 2 m/S 728 mmHg 39%
    07:00 +30°C° 0 mm 2 m/S 728 mmHg 36%
    08:00 +31°C° 0 mm 1 m/S 729 mmHg 32%
    09:00 +33°C° 0 mm 1 m/S 729 mmHg 26%
    10:00 +36°C° 0 mm 1 m/S 729 mmHg 19%
    11:00 +39°C° 0 mm 1 m/S 729 mmHg 13%
    12:00 +42°C° 0 mm 3 m/S 729 mmHg 12%
    13:00 +43°C° 0 mm 4 m/S 728 mmHg 10%
    14:00 +46°C° 0 mm 6 m/S 728 mmHg 9%
    15:00 +45°C° 0 mm 6 m/S 727 mmHg 9%
    16:00 +45°C° 0 mm 6 m/S 727 mmHg 9%
    17:00 +45°C° 0 mm 6 m/S 727 mmHg 9%
    18:00 +42°C° 0 mm 6 m/S 728 mmHg 10%
    19:00 +40°C° 0 mm 7 m/S 728 mmHg 11%
    20:00 +38°C° 0 mm 7 m/S 728 mmHg 12%
    21:00 +36°C° 0 mm 6 m/S 729 mmHg 14%
    22:00 +35°C° 0 mm 6 m/S 729 mmHg 17%
    23:00 +34°C° 0 mm 5 m/S 729 mmHg 19%

    übermorgen, 24 Februar, Sonntag

    Zeit Temperatur Niederschläge Wind Luftdruck Luftfeuchtigkeit
    00:00 +33°C° 0 mm 6 m/S 729 mmHg 22%
    01:00 +32°C° 0 mm 6 m/S 729 mmHg 25%
    02:00 +30°C° 0 mm 6 m/S 729 mmHg 28%
    03:00 +29°C° 0.1 mm 5 m/S 729 mmHg 32%
    04:00 +29°C° 0.1 mm 4 m/S 729 mmHg 35%
    05:00 +28°C° 0.1 mm 3 m/S 730 mmHg 39%
    06:00 +28°C° 0.1 mm 3 m/S 730 mmHg 40%
    07:00 +29°C° 0.1 mm 4 m/S 731 mmHg 41%
    08:00 +29°C° 0.1 mm 5 m/S 731 mmHg 42%
    09:00 +30°C° 0 mm 4 m/S 731 mmHg 38%
    10:00 +33°C° 0 mm 3 m/S 732 mmHg 34%
    11:00 +34°C° 0 mm 3 m/S 732 mmHg 30%
    12:00 +35°C° 0 mm 4 m/S 731 mmHg 27%
    13:00 +36°C° 0 mm 5 m/S 731 mmHg 24%
    14:00 +38°C° 0 mm 6 m/S 730 mmHg 21%
    15:00 +39°C° 0 mm 6 m/S 730 mmHg 21%
    16:00 +39°C° 0 mm 6 m/S 730 mmHg 21%
    17:00 +39°C° 0 mm 6 m/S 730 mmHg 21%
    18:00 +36°C° 0 mm 6 m/S 730 mmHg 24%
    19:00 +35°C° 0 mm 7 m/S 731 mmHg 27%
    20:00 +33°C° 0 mm 7 m/S 731 mmHg 30%
    21:00 +31°C° 0 mm 8 m/S 732 mmHg 35%
    22:00 +28°C° 0 mm 8 m/S 732 mmHg 41%
    23:00 +26°C° 0 mm 9 m/S 732 mmHg 46%

    25 Februar, Montag

    Zeit Temperatur Niederschläge Wind Luftdruck Luftfeuchtigkeit
    00:00 +26°C° 0 mm 9 m/S 732 mmHg 48%
    01:00 +24°C° 0 mm 8 m/S 732 mmHg 50%
    02:00 +23°C° 0 mm 8 m/S 732 mmHg 52%
    03:00 +22°C° 0 mm 8 m/S 732 mmHg 55%
    04:00 +22°C° 0 mm 7 m/S 732 mmHg 57%
    05:00 +22°C° 0 mm 7 m/S 732 mmHg 60%
    06:00 +23°C° 0 mm 7 m/S 733 mmHg 57%
    07:00 +23°C° 0 mm 7 m/S 733 mmHg 54%
    08:00 +24°C° 0 mm 7 m/S 733 mmHg 52%
    09:00 +28°C° 0 mm 7 m/S 733 mmHg 43%
    10:00 +32°C° 0 mm 7 m/S 733 mmHg 34%
    11:00 +35°C° 0 mm 7 m/S 733 mmHg 25%
    12:00 +38°C° 0 mm 7 m/S 732 mmHg 22%
    13:00 +40°C° 0 mm 6 m/S 732 mmHg 19%
    14:00 +42°C° 0 mm 5 m/S 731 mmHg 16%
    15:00 +42°C° 0 mm 5 m/S 731 mmHg 15%
    16:00 +42°C° 0 mm 4 m/S 730 mmHg 14%
    17:00 +43°C° 0 mm 4 m/S 730 mmHg 13%
    18:00 +42°C° 0 mm 4 m/S 731 mmHg 14%
    19:00 +40°C° 0 mm 4 m/S 731 mmHg 15%
    20:00 +38°C° 0 mm 4 m/S 731 mmHg 16%
    21:00 +38°C° 0 mm 6 m/S 731 mmHg 20%
    22:00 +35°C° 0 mm 8 m/S 731 mmHg 24%
    23:00 +34°C° 0 mm 10 m/S 731 mmHg 29%

    26 Februar, Dienstag

    Zeit Temperatur Niederschläge Wind Luftdruck Luftfeuchtigkeit
    00:00 +32°C° 0 mm 10 m/S 731 mmHg 35%
    01:00 +29°C° 0 mm 9 m/S 731 mmHg 41%
    02:00 +28°C° 0 mm 9 m/S 731 mmHg 47%
    03:00 +28°C° 0 mm 8 m/S 731 mmHg 47%
    04:00 +27°C° 0 mm 7 m/S 731 mmHg 48%
    05:00 +27°C° 0 mm 6 m/S 731 mmHg 48%
    06:00 +28°C° 0 mm 7 m/S 731 mmHg 42%
    07:00 +30°C° 0 mm 7 m/S 732 mmHg 37%
    08:00 +32°C° 0 mm 8 m/S 732 mmHg 32%
    09:00 +35°C° 0 mm 8 m/S 732 mmHg 25%
    10:00 +39°C° 0 mm 8 m/S 732 mmHg 19%
    11:00 +44°C° 0 mm 9 m/S 732 mmHg 12%
    12:00 +45°C° 0 mm 8 m/S 731 mmHg 10%
    13:00 +46°C° 0 mm 7 m/S 730 mmHg 9%
    14:00 +46°C° 0 mm 6 m/S 730 mmHg 8%
    15:00 +46°C° 0 mm 6 m/S 730 mmHg 8%
    16:00 +46°C° 0 mm 5 m/S 729 mmHg 8%
    17:00 +45°C° 0 mm 4 m/S 729 mmHg 8%
    18:00 +44°C° 0 mm 4 m/S 729 mmHg 9%
    19:00 +42°C° 0 mm 4 m/S 729 mmHg 10%
    20:00 +41°C° 0 mm 5 m/S 730 mmHg 11%
    21:00 +40°C° 0 mm 5 m/S 730 mmHg 11%
    22:00 +40°C° 0 mm 6 m/S 729 mmHg 11%
    23:00 +39°C° 0 mm 7 m/S 729 mmHg 12%

    27 Februar, Mittwoch

    Zeit Temperatur Niederschläge Wind Luftdruck Luftfeuchtigkeit
    00:00 +38°C° 0 mm 6 m/S 729 mmHg 12%
    01:00 +36°C° 0 mm 5 m/S 729 mmHg 13%
    02:00 +35°C° 0 mm 5 m/S 728 mmHg 13%
    03:00 +35°C° 0 mm 5 m/S 729 mmHg 13%
    04:00 +34°C° 0 mm 5 m/S 729 mmHg 14%
    05:00 +34°C° 0 mm 5 m/S 729 mmHg 14%
    06:00 +35°C° 0 mm 5 m/S 729 mmHg 13%
    07:00 +36°C° 0 mm 5 m/S 730 mmHg 12%
    08:00 +37°C° 0 mm 5 m/S 730 mmHg 12%
    09:00 +40°C° 0 mm 5 m/S 730 mmHg 10%
    10:00 +42°C° 0 mm 6 m/S 730 mmHg 9%
    11:00 +45°C° 0 mm 7 m/S 730 mmHg 8%
    12:00 +46°C° 0 mm 6 m/S 729 mmHg 8%
    13:00 +47°C° 0 mm 6 m/S 728 mmHg 7%
    14:00 +47°C° 0 mm 5 m/S 728 mmHg 7%
    15:00 +47°C° 0 mm 5 m/S 727 mmHg 7%
    16:00 +47°C° 0 mm 5 m/S 727 mmHg 7%
    17:00 +47°C° 0 mm 5 m/S 727 mmHg 7%
    18:00 +45°C° 0 mm 5 m/S 728 mmHg 8%
    19:00 +43°C° 0 mm 5 m/S 728 mmHg 9%
    20:00 +42°C° 0 mm 5 m/S 728 mmHg 9%
    21:00 +41°C° 0 mm 5 m/S 728 mmHg 11%
    22:00 +40°C° 0 mm 4 m/S 728 mmHg 13%
    23:00 +38°C° 0 mm 4 m/S 729 mmHg 14%
    Mehr zeigen